"Pseudo-MPEC" for P11drUj

Created 2021 Feb 24 11:07:14 UT using Find_Orb

Click here for an explanation of pseudo-MPECs

 
 Astrometry: 
     P11drUj  C2021 02 16@E`8!JHsx/X%cTmKONkl;a=;a5D,+@V,kYYChuU`T:AstrometryF51
     P11drUj  C2021 02 16GiiO46kOS`6i*BI'iX3Zkl#YBX?vPredacted;3D?WsSm)$sCbplF51
     P11drUj  C2021 02 16w6Q1JBW(Vy:Ovkct0tmdgfGAD@ea61%4GVyrSVclickcVheren8,F51
     P11drUj |C2021 02 18_Up)M4p95l^UWyFB$4j53BC+S0w_J-e@6m.a,CSDRdCx,2vkyl3C807
     P11drUj |C2021 02 18.vso6wUq9H%TU-STKQ-WSs.DsWpcOl6D\3G8*:`cnoeUIsT7-E+s807
     P11drUj |C2021 02 18bick5SirfjdJ*JgRtR-wKgforQ,%^,$iY$+AP7t?c:0MdnRQGL].807
     P11drUj KC2021 02 20IcvoU8!Y[Z8f\YMT57nE3:p;vIEeyyZ.75hrIZ8_9.2mD#CBO]lmW33
     P11drUj KC2021 02 20xioh4UhndY],,,fDk%-XM+[iNWf$1m[@[IP#:]Uibfg-ENerY!abW33
     P11drUj KC2021 02 20XYN\El)Zg?)=B!1YW1sQDvrexplanationlI,m0n%DviBEIcdRZaW33

Station data:
(807) Cerro Tololo Observatory, La Serena  (S30.169136 W70.805900)  Chile.
(F51) Pan-STARRS 1, Haleakala  (N20.707235 W156.255910)  US/Hawaii.
   Observers N. Primak, A. Schultz, S. Watters, J. Thiel, T. Goggia. Measurer
   PS1 Science Consortium. 1.8-m Ritchey-Chrétien + CCD.
(W33) Transit Dreams Observatory, Campobello  (N35.077819 W82.165490)
   US/South Carolina.

Orbital elements:  P11drUj
   Perihelion 2021 Jan 17.047867 TT =  1:08:55 (JD 2459231.547867)
Epoch 2021 Feb 20.0 TT = JDT 2459265.5   Earth MOID: 0.3076   Ma: 0.0487
M  10.21196357                      (J2000 ecliptic)
n   0.30077531     Peri.   24.63548
a   2.20618158     Node   109.11790
e   0.4141547      Incl.    2.52466
P   3.28           H   21.2     G   0.15   q 1.29248096  Q 3.11988220
From 9 observations 2021 Feb. 16-20; mean residual 0".57
Residuals in arcseconds: 
210216 F51  .37-  .14+    210218 807  1.1+  .08+    210220 W33  .94-  .28+    
210216 F51  .27+  .07+    210218 807  .02+  .09-    210220 W33  .35-  .81-    
210216 F51  .05+  .03-    210218 807  1.3-  .25-    210220 W33  .28+  .91+    

Ephemerides (geocentric):
Date (UTC) HH   RA              Dec         delta   r     elong  mag
---- -- -- --  -------------   -----------  ------ ------ -----  ---
2021 02 24 11  12 25 18.895   +04 59 44.84  .39019 1.3447 151.1 20.8
2021 02 24 12  12 25 19.325   +04 59 54.64  .39020 1.3448 151.2 20.8
2021 02 24 13  12 25 19.750   +05 00 04.45  .39020 1.3449 151.2 20.8
2021 02 24 14  12 25 20.170   +05 00 14.27  .39021 1.3450 151.3 20.8
2021 02 24 15  12 25 20.584   +05 00 24.11  .39021 1.3451 151.3 20.8
2021 02 24 16  12 25 20.994   +05 00 33.96  .39022 1.3452 151.3 20.8
2021 02 24 17  12 25 21.398   +05 00 43.83  .39023 1.3453 151.4 20.8
2021 02 24 18  12 25 21.796   +05 00 53.71  .39023 1.3454 151.4 20.8
2021 02 24 19  12 25 22.190   +05 01 03.60  .39024 1.3455 151.5 20.8
2021 02 24 20  12 25 22.578   +05 01 13.50  .39025 1.3456 151.5 20.8
2021 02 24 21  12 25 22.962   +05 01 23.42  .39025 1.3458 151.5 20.8
2021 02 24 22  12 25 23.340   +05 01 33.35  .39026 1.3459 151.6 20.8
2021 02 24 23  12 25 23.713   +05 01 43.29  .39027 1.3460 151.6 20.8
2021 02 25 00  12 25 24.081   +05 01 53.25  .39028 1.3461 151.6 20.8
2021 02 25 01  12 25 24.443   +05 02 03.22  .39028 1.3462 151.7 20.8
2021 02 25 02  12 25 24.801   +05 02 13.20  .39029 1.3463 151.7 20.8
2021 02 25 03  12 25 25.153   +05 02 23.20  .39030 1.3464 151.8 20.8
2021 02 25 04  12 25 25.500   +05 02 33.21  .39031 1.3465 151.8 20.8
2021 02 25 05  12 25 25.842   +05 02 43.23  .39032 1.3466 151.8 20.8
2021 02 25 06  12 25 26.179   +05 02 53.26  .39033 1.3468 151.9 20.8
2021 02 25 07  12 25 26.511   +05 03 03.31  .39034 1.3469 151.9 20.8
2021 02 25 08  12 25 26.838   +05 03 13.37  .39035 1.3470 152.0 20.8
2021 02 25 09  12 25 27.159   +05 03 23.44  .39036 1.3471 152.0 20.8
2021 02 25 10  12 25 27.476   +05 03 33.52  .39036 1.3472 152.0 20.8
2021 02 25 11  12 25 27.787   +05 03 43.62  .39037 1.3473 152.1 20.8
2021 02 25 12  12 25 28.093   +05 03 53.73  .39038 1.3474 152.1 20.8
2021 02 25 13  12 25 28.394   +05 04 03.85  .39040 1.3475 152.2 20.8
2021 02 25 14  12 25 28.690   +05 04 13.98  .39041 1.3476 152.2 20.8
2021 02 25 15  12 25 28.981   +05 04 24.12  .39042 1.3478 152.2 20.8
2021 02 25 16  12 25 29.267   +05 04 34.28  .39043 1.3479 152.3 20.8
2021 02 25 17  12 25 29.548   +05 04 44.45  .39044 1.3480 152.3 20.8
2021 02 25 18  12 25 29.824   +05 04 54.63  .39045 1.3481 152.4 20.8
2021 02 25 19  12 25 30.094   +05 05 04.82  .39046 1.3482 152.4 20.8
2021 02 25 20  12 25 30.360   +05 05 15.02  .39047 1.3483 152.4 20.8
2021 02 25 21  12 25 30.621   +05 05 25.24  .39048 1.3484 152.5 20.8
2021 02 25 22  12 25 30.876   +05 05 35.46  .39050 1.3485 152.5 20.8
2021 02 25 23  12 25 31.127   +05 05 45.70  .39051 1.3487 152.6 20.8
2021 02 26 00  12 25 31.372   +05 05 55.95  .39052 1.3488 152.6 20.8
2021 02 26 01  12 25 31.612   +05 06 06.21  .39053 1.3489 152.6 20.8
2021 02 26 02  12 25 31.848   +05 06 16.49  .39055 1.3490 152.7 20.8
2021 02 26 03  12 25 32.078   +05 06 26.77  .39056 1.3491 152.7 20.8
2021 02 26 04  12 25 32.304   +05 06 37.07  .39057 1.3492 152.8 20.8
2021 02 26 05  12 25 32.524   +05 06 47.37  .39059 1.3493 152.8 20.8
2021 02 26 06  12 25 32.739   +05 06 57.69  .39060 1.3494 152.8 20.8
2021 02 26 07  12 25 32.950   +05 07 08.02  .39061 1.3496 152.9 20.8
2021 02 26 08  12 25 33.155   +05 07 18.36  .39063 1.3497 152.9 20.8
2021 02 26 09  12 25 33.355   +05 07 28.71  .39064 1.3498 153.0 20.8
2021 02 26 10  12 25 33.551   +05 07 39.07  .39066 1.3499 153.0 20.8